Theta_e
326 326 327 327 326 326 327 327 328 328 328 328 328 328 328 328 328 328 328 328 329 329 329 329 329 330 330 329 329 328 328 327 327 326 326 325 325 323 320 319 320 321 323 324 324 324 325 324 324 323 323 323 318 310 308 307 305 302 300 300 301 301 301 301 301 301 301 300 300 300 300 300 301 301
327 327 327 327 327 327 327 327 328 328 328 328 328 328 328 327 326 327 327 328 329 329 329 329 329 329 330 329 328 328 328 327 327 327 327 326 325 325 323 320 319 320 322 323 323 323 324 324 324 323 323 324 322 315 308 306 306 303 300 300 301 301 301 301 301 301 301 301 300 300 300 301 301 301
327 327 327 327 327 327 327 328 328 328 328 328 328 328 327 327 326 326 327 328 329 329 329 328 329 329 329 329 328 329 328 328 327 327 327 326 326 325 325 322 320 320 321 322 323 323 323 324 324 324 323 323 324 320 312 308 307 304 301 300 300 301 301 300 301 301 300 301 300 301 301 301 301 301
327 327 328 327 327 328 328 329 329 329 329 328 327 326 326 327 327 327 327 327 328 329 328 328 328 328 328 329 329 329 328 328 327 327 326 326 326 325 325 324 322 320 320 321 323 323 323 323 324 324 324 323 324 322 317 313 310 305 302 302 300 301 301 300 301 300 300 300 300 301 300 300 300 300
327 327 328 328 328 328 329 329 329 329 330 329 327 325 324 326 327 327 327 327 327 328 328 328 328 328 328 328 328 329 328 328 327 327 327 327 326 325 325 325 323 321 320 320 322 323 323 323 323 324 324 323 323 323 319 318 317 308 303 303 301 300 300 300 300 300 300 300 300 300 300 300 300 300
327 328 327 328 328 328 328 329 329 329 329 329 327 324 324 325 327 328 327 326 327 328 328 327 328 328 328 328 328 328 328 328 327 327 327 327 326 326 325 325 324 323 321 320 321 322 323 323 323 324 324 323 324 323 321 321 320 311 303 303 301 300 300 300 300 300 300 300 300 300 300 300 300 300
328 327 327 328 328 328 328 328 329 329 329 329 328 326 325 325 327 328 328 327 327 328 328 327 328 328 327 328 328 328 328 328 328 327 327 327 327 326 325 325 325 324 322 321 320 322 323 324 323 323 324 323 323 323 322 322 320 311 303 302 300 299 300 300 300 300 300 300 300 300 300 300 300 300
327 327 327 328 328 329 328 328 328 329 329 329 329 328 328 327 327 328 328 327 327 328 327 327 327 327 327 328 328 328 328 328 328 327 327 327 326 326 325 325 325 325 324 322 321 321 322 323 323 323 323 323 323 323 322 322 319 310 302 301 300 299 299 300 300 300 299 300 299 300 300 300 300 300
328 328 328 328 328 329 328 328 328 328 329 329 329 329 329 329 328 328 327 326 327 327 327 328 328 327 328 328 327 327 327 328 328 327 327 327 327 326 326 326 326 325 325 323 322 321 321 322 322 322 323 323 323 323 322 322 319 309 301 299 299 299 299 300 300 300 300 300 299 299 299 299 299 300
327 328 327 328 328 328 328 328 328 328 328 328 329 328 328 328 328 329 328 327 327 327 327 328 328 328 328 328 327 327 327 327 327 328 327 327 327 327 327 327 326 325 325 325 324 322 321 321 321 321 322 322 323 323 321 321 318 308 299 299 299 299 299 299 300 300 299 299 299 299 299 299 299 300
327 327 327 327 328 328 328 328 328 328 328 328 328 328 328 328 327 328 328 327 326 327 327 327 328 328 328 328 328 327 326 326 327 327 327 327 327 327 327 326 325 325 325 325 324 323 322 321 321 322 322 321 322 323 321 321 316 306 299 299 299 299 299 299 299 299 299 299 299 299 299 299 299 300
326 326 326 326 327 327 327 328 328 328 328 328 328 327 327 327 326 326 326 326 326 326 326 326 326 328 328 328 327 327 326 326 326 327 327 327 327 327 326 326 325 325 325 325 324 323 322 321 321 322 322 321 322 322 320 320 315 304 298 299 299 299 300 299 299 299 299 299 299 299 299 299 299 302
325 325 325 326 326 326 327 327 328 327 328 328 328 327 327 326 326 326 326 327 326 326 325 325 325 326 327 327 326 326 326 326 326 326 326 327 326 325 324 323 323 324 324 324 324 323 322 321 321 322 322 321 321 320 319 319 312 302 298 299 299 299 299 299 299 299 299 299 299 299 299 300 302 305
324 325 325 325 325 326 326 326 327 327 327 327 327 327 327 326 326 326 326 326 327 326 326 326 326 327 327 327 327 327 326 326 326 326 327 326 325 324 323 322 321 322 324 324 324 323 322 321 322 323 321 320 320 319 319 317 308 299 299 299 298 299 299 299 299 299 299 299 299 300 302 305 307 308
324 324 324 325 325 325 325 325 326 326 326 326 326 327 327 326 326 326 326 325 325 326 325 326 327 327 327 327 327 327 326 326 326 326 327 326 323 322 323 322 321 321 324 324 323 322 321 321 322 321 318 319 320 319 318 314 304 298 299 299 298 299 298 298 299 299 299 299 301 304 307 308 309 309
323 323 323 323 323 323 323 323 324 324 324 325 325 326 326 326 326 326 326 325 325 325 325 325 325 325 325 325 326 326 326 325 326 326 326 325 323 322 323 322 320 321 323 324 323 322 322 322 321 320 319 319 319 317 316 310 301 298 299 299 298 299 298 299 299 299 300 302 306 308 309 309 310 310
320 320 320 320 320 320 320 321 321 321 322 322 323 323 324 324 324 325 325 324 324 324 324 325 324 324 324 324 325 325 325 325 325 325 325 325 324 324 323 321 320 321 322 323 323 323 322 320 320 320 319 318 317 316 312 305 299 298 299 298 299 299 298 299 299 300 303 306 308 309 309 310 310 308
317 317 317 317 317 318 318 318 318 318 319 320 321 321 322 322 322 323 323 322 323 323 323 324 324 324 324 324 324 324 324 324 324 324 325 325 324 324 323 321 321 322 323 322 322 321 320 319 319 320 318 317 315 313 307 302 299 299 298 298 299 299 299 300 301 304 306 308 309 309 309 308 306 304
315 315 316 316 316 316 316 316 317 317 318 318 319 319 319 319 320 320 320 320 321 321 322 322 322 322 322 322 323 322 322 322 323 323 324 323 324 324 323 321 320 320 321 321 319 319 319 318 318 319 317 314 312 308 304 302 301 300 299 299 300 300 301 302 303 305 307 308 309 307 305 303 302 301
314 314 314 314 314 314 315 314 315 315 315 316 317 316 316 316 317 317 317 317 318 319 320 321 321 321 321 321 321 321 321 321 321 322 322 321 321 322 320 320 318 316 317 319 318 317 318 318 317 317 314 311 310 309 307 305 303 301 301 303 303 303 303 303 305 306 307 306 304 302 301 300 299 299
313 313 313 313 312 312 312 312 313 313 313 313 314 314 313 314 314 314 315 316 316 317 318 318 319 319 319 318 319 319 319 319 319 320 320 319 319 319 317 318 316 313 314 316 316 315 315 314 312 312 311 311 312 312 310 309 307 305 304 307 307 305 304 305 306 305 304 302 300 299 299 299 298 298
311 311 311 311 311 311 310 310 310 311 311 311 311 311 311 311 312 312 313 313 314 315 316 316 316 317 316 316 316 316 316 317 317 318 318 318 319 318 317 317 316 314 314 313 310 309 308 307 307 310 312 313 313 312 311 310 309 307 306 308 308 305 305 305 304 302 301 300 300 300 299 298 298 298
311 310 310 310 310 310 310 310 310 310 310 310 309 309 309 309 309 310 310 311 311 312 313 313 314 315 315 315 315 315 315 315 315 315 315 316 317 317 317 317 316 316 316 313 308 306 306 306 307 309 311 312 311 311 311 310 309 308 308 308 306 304 304 302 301 300 300 300 301 300 299 298 297 297
310 310 310 309 309 309 310 310 309 309 309 309 308 308 308 308 307 307 308 308 309 310 310 310 311 312 312 313 314 314 314 314 313 313 313 314 315 314 315 315 315 315 316 314 311 308 307 308 309 310 310 311 310 309 308 308 307 307 306 305 304 302 301 301 300 300 300 300 300 299 298 297 297 297
309 309 308 307 307 308 308 308 308 308 308 308 307 307 306 306 306 306 307 307 308 308 308 308 308 309 309 309 310 311 312 312 313 313 313 314 314 313 312 312 313 312 313 313 312 310 310 311 311 311 310 310 309 308 306 304 303 302 302 301 301 300 299 299 300 300 300 299 298 297 297 296 296 296
306 305 305 304 305 305 306 306 306 306 306 306 305 305 304 305 305 305 305 305 306 306 306 307 307 307 307 307 307 307 308 309 310 311 312 312 312 311 311 311 311 311 311 311 311 311 311 311 311 310 309 309 307 306 304 301 299 299 299 299 299 299 299 299 299 299 298 297 296 296 296 295 295 294
303 303 302 302 302 303 303 302 303 303 303 303 303 303 303 303 303 303 303 303 303 303 304 304 304 304 304 304 305 306 306 306 307 307 308 308 309 309 309 309 310 310 310 310 310 310 310 310 309 308 308 308 307 304 302 300 298 298 298 298 298 299 298 298 297 297 296 296 296 296 295 294 293 293
300 300 300 300 300 299 299 299 300 301 302 302 302 302 302 301 301 301 301 301 301 301 301 301 301 301 302 302 302 303 303 304 305 305 305 306 306 306 306 307 307 307 308 308 308 308 308 308 308 307 306 306 305 303 301 299 297 297 298 298 298 297 297 296 296 296 296 295 295 295 294 293 293 292
297 297 297 297 297 297 297 297 298 298 299 300 300 300 299 299 299 299 299 299 299 299 300 300 300 300 300 301 301 301 301 301 302 302 303 303 304 304 304 305 305 305 305 305 305 305 305 305 305 304 304 303 302 302 301 299 298 297 298 298 297 296 295 295 295 295 294 294 293 293 293 292 292 292
296 296 296 296 296 296 296 296 296 297 297 297 297 297 297 297 297 297 297 297 297 297 298 298 299 300 300 300 300 300 300 300 300 300 300 300 301 301 302 302 302 302 302 303 303 303 303 302 302 302 302 301 301 301 300 299 298 298 298 297 296 295 294 294 294 294 294 293 293 293 293 293 293 292
295 295 295 295 295 295 295 295 295 295 295 296 296 296 296 296 296 296 296 296 296 296 296 296 297 298 299 300 300 300 300 300 300 299 299 299 299 299 299 300 300 300 301 301 301 301 301 301 300 300 301 301 300 299 299 299 298 298 297 296 295 295 294 294 294 294 294 294 294 294 294 294 293 293
294 294 294 294 294 294 294 294 295 295 295 295 295 295 295 295 295 295 295 295 296 295 295 295 295 296 297 299 300 300 300 300 300 299 299 299 299 299 299 299 299 300 300 300 300 300 300 300 300 300 299 300 299 299 299 299 298 297 296 295 295 295 294 294 294 294 294 294 294 294 294 294 293 293
293 293 293 293 293 293 293 294 294 294 294 294 294 294 294 294 295 295 295 295 296 296 296 296 295 295 296 298 300 300 300 300 299 299 299 298 298 298 298 298 299 299 299 300 300 300 300 300 300 299 299 299 299 299 299 298 297 296 296 295 295 295 295 295 295 295 295 295 295 295 294 294 294 293
293 293 293 293 293 293 293 293 293 293 293 293 293 294 294 295 295 295 296 296 296 296 296 296 296 296 296 297 298 300 300 300 299 299 299 298 298 298 298 298 298 298 299 299 299 299 299 299 299 299 299 299 299 298 298 298 297 296 296 295 295 295 295 295 295 295 295 295 295 295 295 294 294 293
293 293 292 292 292 292 292 292 292 292 292 293 293 294 295 295 295 296 296 296 296 296 296 296 296 296 296 296 297 297 298 299 299 299 298 298 298 299 299 298 298 298 298 299 298 298 299 299 298 298 298 298 297 297 297 297 296 296 296 296 296 296 296 295 295 295 295 294 295 295 295 295 294 293
293 292 292 292 292 292 292 292 292 292 292 292 293 293 294 295 295 295 296 296 296 295 295 295 296 296 296 296 296 296 296 297 297 297 298 298 299 298 298 298 298 298 299 299 298 298 298 298 298 298 298 297 297 297 296 296 296 296 296 296 295 295 295 294 294 294 294 294 294 295 295 295 294 293
292 292 292 292 291 291 292 292 292 292 292 292 293 293 294 295 295 295 295 295 295 295 295 294 294 295 295 295 295 295 295 296 296 297 297 297 298 298 298 298 298 298 298 298 298 298 298 298 298 298 298 297 297 297 296 297 296 296 296 296 294 293 293 292 292 293 294 294 294 295 295 294 294 293
292 292 292 291 291 291 291 292 292 292 292 292 293 293 294 295 295 295 295 294 294 294 294 294 294 294 294 294 294 294 295 295 296 296 296 296 297 297 298 298 298 298 298 298 298 298 298 298 297 297 297 297 297 297 296 296 296 295 294 293 292 291 291 291 293 293 294 294 295 295 295 294 293 293
292 292 292 291 291 291 291 291 292 292 292 292 293 293 294 294 294 294 294 294 294 294 294 293 294 294 294 294 294 294 294 294 294 295 295 295 296 296 297 297 298 298 298 298 298 298 298 298 297 297 297 297 297 296 295 295 295 294 293 291 290 290 291 292 293 294 293 293 294 294 293 293 292 292
292 292 292 292 291 291 291 291 291 292 292 292 293 293 293 293 293 294 294 294 294 294 293 293 293 294 294 294 293 293 294 294 294 294 294 294 294 294 295 296 296 297 297 297 297 297 297 297 296 296 296 296 296 296 295 294 293 293 291 289 289 290 292 293 293 293 293 293 292 292 292 291 290 290
292 292 292 292 292 291 291 291 291 291 291 292 292 293 293 293 293 293 293 294 294 294 293 293 293 293 293 293 293 293 293 293 293 293 293 293 293 293 293 294 294 295 296 296 296 296 296 297 296 296 296 295 295 295 294 294 293 292 290 289 289 290 291 292 292 291 291 291 291 291 290 290 290 289
291 291 291 291 292 291 291 291 291 290 290 291 291 292 292 293 293 293 293 293 293 293 293 293 293 293 293 293 293 293 293 293 293 293 293 293 293 293 293 293 293 293 293 294 294 294 295 295 295 295 295 295 295 295 294 294 293 291 290 289 289 290 291 291 290 289 289 289 289 290 290 290 290 290
291 291 291 291 291 291 291 291 291 291 290 290 289 290 291 292 292 293 293 293 293 293 293 293 293 293 293 292 292 292 292 292 292 292 293 293 293 293 293 293 292 292 292 292 292 292 293 294 294 294 294 295 294 294 294 293 292 291 290 290 289 289 290 289 289 289 289 289 289 289 289 289 290 290
291 290 290 290 290 290 290 291 291 291 291 290 290 289 289 290 290 291 292 292 293 293 293 293 293 293 293 293 292 292 292 292 292 292 292 292 293 293 292 292 292 292 292 292 292 292 292 292 292 292 293 294 294 294 293 293 292 291 291 290 289 289 290 290 289 290 290 289 290 290 289 289 290 289
291 291 290 290 290 290 290 290 290 290 290 290 290 290 290 289 289 289 289 290 291 292 293 293 293 293 293 292 292 292 293 293 292 292 292 292 293 293 293 292 292 292 292 292 292 292 292 292 292 291 292 292 292 293 293 292 292 291 290 289 289 290 290 290 290 290 290 290 290 290 290 290 290 290
Wind_Speed
16 16 16 16 18 18 19 19 19 19 19 19 18 19 22 25 26 26 26 28 29 24 22 23 25 30 33 34 33 31 29 28 27 26 26 24 24 25 25 25 25 25 25 25 26 24 22 22 23 23 21 19 17 13 10 9 9 10 11 13 13 14 14 14 14 13 13 13 13 13 13 12 11 11
14 15 15 15 16 16 16 17 17 17 18 17 16 17 21 23 25 28 27 26 27 26 24 22 23 28 32 34 34 33 31 30 29 28 28 26 25 24 25 25 25 25 26 26 26 25 23 21 22 22 23 22 20 16 12 9 9 10 12 13 13 13 14 15 14 14 13 14 14 14 14 13 12 12
13 13 14 15 15 15 15 14 14 15 16 16 16 15 18 19 21 26 28 26 24 26 25 21 21 25 30 32 33 34 32 31 30 30 29 28 26 25 24 25 26 26 27 26 26 26 24 22 21 20 23 25 23 19 16 12 10 11 12 13 13 12 14 15 14 14 14 14 15 15 14 14 13 12
12 12 13 14 14 13 13 13 12 13 14 16 16 15 16 17 17 21 27 27 24 24 24 21 19 22 27 30 32 33 34 32 31 31 29 28 28 27 25 26 27 27 27 27 26 26 26 25 22 19 20 24 24 21 19 14 10 10 11 12 13 12 13 15 15 14 14 14 15 14 14 14 13 13
11 12 13 14 13 12 12 13 12 13 13 14 16 15 15 18 18 18 22 25 25 25 23 19 16 17 22 28 30 32 35 34 32 31 30 30 30 29 27 27 28 28 27 27 26 26 26 25 23 20 18 21 25 24 21 17 12 10 10 12 13 13 14 16 16 15 15 15 15 14 14 13 13 13
11 12 13 14 13 12 12 12 12 12 13 13 15 16 16 18 19 16 18 23 28 30 26 19 15 15 18 23 27 29 32 34 33 32 31 31 31 30 30 29 28 28 28 27 26 26 26 25 23 21 18 20 26 25 22 18 14 12 12 12 14 15 15 17 16 16 16 15 15 14 14 13 13 13
10 10 11 11 11 11 11 11 11 11 11 12 13 15 16 17 17 15 16 22 28 29 25 20 17 15 15 18 23 26 29 32 33 32 32 32 32 31 31 29 28 29 29 29 27 26 26 25 23 22 20 22 27 26 21 18 14 13 13 13 14 17 17 17 17 16 16 16 15 15 14 14 14 13
10 9 10 9 9 9 10 10 9 9 10 11 12 13 14 14 15 14 15 19 22 23 21 19 18 16 14 15 19 24 28 32 32 32 33 34 33 32 31 29 30 30 29 29 28 27 27 25 24 23 20 21 28 27 22 19 15 13 14 13 15 18 19 18 17 17 17 16 16 15 15 14 14 14
10 9 8 8 8 8 8 7 8 8 9 10 10 11 11 11 12 13 14 17 20 21 20 18 17 17 16 15 17 22 27 31 30 30 33 33 32 32 31 29 31 31 29 29 28 27 27 26 26 25 21 22 28 28 23 20 17 14 13 14 16 19 20 19 18 17 17 16 16 15 15 15 15 14
10 9 8 7 7 7 7 7 7 7 7 8 9 10 11 11 11 12 12 14 19 21 21 19 18 18 17 17 18 20 24 28 29 30 32 32 31 32 32 30 31 32 31 30 29 28 28 28 27 27 24 23 27 27 22 19 16 13 13 14 17 20 20 19 18 18 17 16 16 15 15 15 15 15
11 10 9 9 8 7 7 6 6 7 7 7 8 8 9 10 11 11 11 12 16 19 21 22 21 18 17 18 18 18 20 24 28 30 30 30 31 32 33 32 32 32 32 31 30 28 28 28 27 26 23 22 25 26 21 17 15 14 14 16 18 19 20 19 18 18 17 16 16 16 15 15 15 15
10 10 10 9 9 8 8 7 7 7 7 7 7 8 8 10 10 10 11 12 14 16 18 21 21 19 18 18 18 18 19 22 26 28 28 31 33 32 32 32 31 32 33 33 31 29 28 27 26 24 21 21 24 23 20 18 17 15 15 17 19 19 19 19 18 17 16 16 16 16 16 16 16 15
9 9 9 10 10 10 9 9 9 8 7 7 7 7 8 8 8 9 11 12 12 14 16 18 19 18 19 18 18 20 21 22 24 26 26 30 34 32 30 30 30 29 30 32 32 30 29 28 26 24 21 21 24 22 20 20 18 16 18 18 19 19 19 18 18 17 17 17 17 17 16 16 16 16
9 9 9 10 10 10 9 9 9 9 8 7 7 7 7 6 6 8 11 13 12 13 16 18 19 18 18 18 18 20 20 21 23 25 27 30 32 32 30 28 28 28 28 32 33 30 28 28 28 26 23 23 25 24 23 22 18 18 20 19 19 20 19 18 18 18 18 18 17 17 17 16 16 16
10 10 10 10 10 10 10 10 9 9 8 8 8 8 7 6 7 8 11 14 16 15 16 18 19 18 18 19 19 20 21 22 24 25 27 31 33 32 31 28 28 27 28 32 32 28 26 28 28 27 23 24 27 26 21 19 17 19 21 19 19 20 19 18 18 18 18 18 17 17 17 17 17 18
13 13 13 13 13 13 13 13 13 12 10 9 9 8 7 7 7 8 10 13 15 16 16 16 15 16 17 18 19 20 21 22 24 24 26 31 33 32 31 28 27 28 29 30 29 26 26 27 26 24 23 25 26 22 16 15 17 20 21 19 19 19 18 18 18 18 18 18 18 18 18 18 18 18
19 18 18 18 18 19 18 18 19 18 15 12 10 9 8 7 7 7 9 11 12 13 14 15 15 15 17 18 19 19 20 21 23 24 27 31 32 32 29 25 24 27 28 28 27 27 27 25 23 23 24 24 22 18 15 16 18 20 19 19 18 18 18 18 18 18 18 18 18 18 18 18 18 18
26 25 25 26 26 25 24 24 23 21 18 15 13 11 9 8 7 6 8 8 8 7 8 11 14 16 17 19 19 19 20 22 23 24 27 30 32 32 28 23 23 26 26 25 26 26 26 24 22 22 21 20 19 18 18 18 18 18 18 18 18 17 17 18 18 18 18 18 18 18 18 18 18 17
31 31 32 32 31 31 30 28 26 22 19 17 16 18 18 17 15 15 16 15 13 10 7 6 8 11 13 15 17 16 17 19 21 23 26 30 34 32 26 21 22 22 21 22 22 23 24 23 22 21 19 19 19 18 18 18 18 18 18 18 17 17 17 17 18 18 18 18 18 17 17 16 15 15
32 32 33 32 31 31 31 30 29 27 25 23 24 25 27 26 25 25 24 23 20 17 14 11 8 6 5 6 8 10 10 12 16 19 22 26 30 28 22 19 18 15 16 19 19 20 22 21 20 20 19 18 17 17 17 17 17 18 18 17 17 18 18 18 18 18 17 17 16 15 14 12 10 9
31 31 31 30 30 30 30 29 29 30 30 30 30 31 32 31 31 30 27 25 24 22 20 18 15 13 12 11 8 6 4 5 8 11 15 20 22 18 16 16 15 13 15 17 16 16 17 18 19 19 18 17 17 16 16 16 17 18 17 17 17 18 17 17 17 16 15 15 13 11 9 7 5 4
29 29 28 28 28 28 27 26 26 27 28 29 30 31 31 31 31 28 25 25 25 24 23 22 20 20 20 19 18 16 9 2 1 1 7 15 15 12 12 16 16 15 16 16 14 14 15 15 17 18 17 17 16 16 16 17 18 18 16 16 17 16 16 15 15 15 14 13 11 9 7 6 4 3
27 26 27 27 26 25 24 23 24 24 25 26 28 28 28 29 29 26 23 23 24 25 26 26 25 25 24 23 22 21 16 8 6 8 10 11 10 6 8 13 17 18 17 15 14 14 15 16 18 19 19 18 17 16 17 17 17 16 16 16 16 15 16 16 16 16 14 13 11 9 7 6 4 4
24 24 25 25 24 22 21 21 22 22 24 25 26 27 27 27 26 23 22 22 23 24 26 27 28 28 27 26 24 23 22 18 15 15 15 13 9 6 4 3 8 12 13 15 16 14 14 16 18 20 20 18 17 17 17 16 16 16 16 16 17 17 18 19 19 17 15 12 10 9 10 10 9 7
23 23 23 23 22 20 19 19 20 21 22 24 26 27 27 25 22 20 20 20 20 22 24 25 26 27 27 27 27 26 25 24 20 15 12 10 8 6 6 6 4 3 4 7 10 10 11 13 15 17 18 17 16 15 16 16 15 16 16 18 20 21 20 19 18 15 13 12 13 13 14 14 12 10
23 22 22 22 21 19 19 20 21 21 22 23 25 25 24 22 21 20 21 21 21 23 24 24 25 26 26 26 26 26 25 24 22 19 16 14 11 8 6 4 3 2 2 3 5 7 9 12 13 14 16 17 15 15 17 18 17 18 20 20 20 19 17 15 14 14 15 16 17 16 15 15 14 13
23 22 22 22 21 21 22 23 24 24 25 25 24 24 23 23 24 24 25 27 28 28 29 29 30 30 29 28 27 25 24 22 21 19 18 17 15 13 11 9 8 7 5 3 2 4 7 9 11 12 15 16 16 17 19 21 21 22 20 18 17 16 16 16 17 18 18 17 18 17 16 16 15 13
23 23 22 22 22 23 24 26 27 28 28 27 26 25 25 26 27 29 30 31 32 33 33 34 34 34 33 32 30 28 25 23 20 18 16 15 15 14 13 11 11 11 11 9 7 5 2 1 3 7 12 15 17 19 20 21 22 20 18 17 18 19 21 21 21 20 18 17 17 16 15 14 12 10
24 23 22 22 23 24 24 25 27 28 28 27 27 27 27 28 30 30 31 32 33 33 34 34 33 33 31 31 30 29 28 27 25 22 20 18 15 12 10 9 10 10 9 8 7 6 5 5 3 4 9 11 13 17 20 21 21 20 19 20 22 23 24 24 22 20 18 17 16 15 13 12 10 8
21 21 21 21 22 23 24 25 26 27 27 26 27 27 28 29 30 31 31 32 33 33 32 31 30 29 28 27 27 27 28 29 28 26 25 25 23 19 16 16 17 17 15 14 13 12 12 11 9 3 6 10 10 13 18 21 22 22 21 22 23 24 24 24 22 20 18 16 15 13 11 10 9 8
20 20 20 21 22 23 23 24 25 25 25 26 27 28 29 29 30 30 30 31 31 31 30 29 28 27 25 25 25 26 28 28 27 26 26 27 27 26 26 27 28 27 25 23 22 20 19 17 14 10 4 8 11 14 18 20 22 23 22 21 22 23 23 22 20 18 15 14 13 11 10 8 7 7
19 19 20 21 22 22 23 24 24 24 25 26 27 27 28 29 29 29 29 30 30 30 29 28 28 27 26 25 25 26 27 27 26 25 24 25 25 25 27 29 30 29 28 26 23 21 19 17 16 15 10 8 13 19 22 22 22 23 23 22 21 21 21 20 18 16 14 12 11 10 8 7 5 5
18 20 21 22 23 23 24 24 24 24 24 25 25 26 26 27 28 28 29 30 30 30 29 29 28 28 27 26 26 25 26 27 26 25 24 23 23 24 27 29 30 31 31 28 23 19 18 18 19 19 16 14 17 20 20 20 21 21 20 20 19 18 17 16 14 13 12 11 10 9 8 6 3 3
18 21 23 24 25 25 25 24 24 24 24 25 25 26 26 27 28 28 29 29 29 29 29 29 28 28 28 28 27 26 26 26 26 25 24 23 22 22 23 24 26 27 28 28 26 23 21 21 22 23 21 19 19 18 15 16 19 19 18 17 16 14 13 11 10 10 10 9 10 10 8 6 4 3
20 24 25 26 26 26 26 25 25 24 24 24 25 25 25 26 27 28 27 27 27 27 28 28 28 28 29 28 27 27 26 26 25 24 24 24 23 21 19 19 19 19 20 21 22 22 20 18 19 21 21 20 19 18 15 14 15 16 15 13 12 11 10 8 7 7 6 7 8 10 10 7 6 5
23 25 26 27 27 26 26 26 25 24 24 24 24 24 24 25 25 25 25 24 24 25 26 27 27 27 27 27 26 25 25 24 24 24 22 21 21 20 19 19 17 15 15 16 17 17 16 15 14 16 18 17 16 15 14 13 13 12 10 9 8 8 9 8 7 6 6 4 5 9 10 8 6 6
24 25 25 26 26 26 26 25 25 24 24 24 23 24 24 24 23 23 22 22 22 23 24 25 25 25 25 25 24 24 24 23 23 23 21 19 17 17 17 18 16 13 13 13 13 12 12 11 10 11 11 11 11 11 11 11 12 10 9 8 8 8 9 9 7 6 6 4 4 7 9 6 5 7
24 24 24 25 25 24 24 24 24 24 23 23 23 23 23 22 22 21 21 21 22 22 23 24 24 24 24 24 24 24 24 23 22 22 22 20 18 15 13 13 12 11 10 10 10 9 9 9 9 9 9 10 10 9 10 10 10 9 8 8 9 9 7 7 6 5 5 5 5 6 7 6 6 8
22 22 23 23 23 23 22 23 23 22 22 22 22 22 21 21 20 20 20 21 21 21 21 22 23 23 23 24 24 24 23 23 23 22 21 21 19 17 13 11 10 9 8 8 8 7 7 7 8 8 8 8 8 9 10 10 9 7 6 6 8 8 7 5 5 5 5 5 5 6 7 8 8 9
21 21 21 21 21 21 21 21 21 21 21 21 20 20 19 19 18 18 18 18 18 19 19 20 20 21 21 22 22 22 22 23 22 21 20 20 20 19 17 15 12 10 8 8 8 7 6 5 6 7 7 7 8 10 10 9 7 5 4 4 6 7 8 6 6 6 6 6 6 6 7 8 9 9
19 19 19 19 20 20 20 20 20 20 20 20 19 18 17 17 17 16 16 15 15 16 16 17 17 17 17 18 19 19 19 20 20 20 19 18 18 18 18 17 14 12 10 9 8 7 6 5 6 7 7 8 9 10 8 6 5 4 2 3 5 7 7 7 6 6 5 6 5 6 6 6 6 7
17 17 17 17 18 18 18 19 19 19 19 19 19 18 16 15 14 13 13 12 12 12 13 13 13 14 14 15 15 16 16 17 18 18 17 16 15 15 16 15 14 14 12 10 9 7 6 6 6 6 6 7 8 7 5 4 4 3 1 2 4 6 7 6 6 6 5 5 6 7 6 6 6 5
16 16 16 16 16 16 16 17 17 18 18 18 18 18 16 15 13 12 11 10 9 9 9 10 10 11 12 13 13 13 13 14 14 14 15 14 14 13 13 13 13 13 12 10 10 8 8 7 7 7 6 6 6 5 3 4 3 2 2 3 4 6 7 6 5 5 5 5 6 5 5 5 5 5
15 15 15 15 15 14 15 15 15 15 16 17 17 17 16 16 15 13 12 11 9 8 8 7 7 8 10 11 11 11 11 12 11 11 11 12 12 12 11 10 10 9 8 8 7 7 7 6 6 6 6 5 5 5 4 3 3 2 3 4 5 6 6 5 4 4 3 3 4 4 4 4 4 4
15 15 15 14 14 13 13 13 14 14 14 15 15 16 16 16 15 15 14 13 11 10 9 8 7 7 8 8 8 9 9 9 9 9 9 10 10 10 9 8 7 6 5 5 5 5 5 4 5 5 4 4 3 3 3 3 3 3 4 5 5 6 6 5 5 5 6 7 7 7 7 7 7 6
Wind_Direction
288 276 278 283 279 270 263 263 262 261 260 256 251 252 253 250 250 247 234 232 237 231 225 229 226 222 218 215 215 213 212 212 211 211 212 212 210 206 203 204 205 206 203 202 204 202 201 203 204 206 210 210 208 206 213 219 212 207 204 205 205 199 194 193 191 184 177 172 168 168 169 166 161 157
294 283 280 280 280 278 271 264 262 260 256 252 248 252 254 251 251 248 235 230 234 228 223 226 225 223 220 215 214 214 213 212 210 211 213 213 213 209 205 205 205 206 205 204 206 206 204 204 205 210 216 217 211 208 211 211 207 209 208 207 207 199 192 193 193 187 181 176 173 172 171 168 165 162
291 289 286 283 281 282 276 265 259 259 254 249 248 255 261 256 251 249 241 232 232 230 225 222 221 223 222 216 214 214 215 214 211 211 214 215 216 213 209 207 207 207 208 206 206 207 207 207 207 214 221 219 213 211 212 210 205 209 212 210 207 199 193 194 194 190 186 183 179 176 173 170 169 167
292 290 287 285 282 278 273 264 258 258 254 248 247 255 270 269 257 252 245 237 235 233 226 222 222 222 220 217 215 215 216 215 213 212 214 216 217 215 211 209 208 209 209 208 207 207 208 210 212 218 222 218 214 214 212 211 212 212 216 215 207 198 194 196 196 194 193 191 186 181 178 175 173 172
298 292 289 288 287 279 272 266 263 262 256 250 246 248 264 274 266 252 246 245 243 236 225 219 220 219 216 215 216 217 217 216 213 212 213 216 217 216 213 211 209 209 211 210 208 208 208 211 214 219 221 218 219 220 215 215 224 222 221 219 209 200 197 198 199 198 198 197 193 187 184 181 179 177
305 297 293 293 291 284 277 273 268 264 260 253 249 248 254 269 271 255 243 245 241 233 225 216 214 214 212 213 215 216 217 216 213 211 212 216 218 216 214 213 210 208 211 211 209 208 208 210 214 218 221 218 217 219 218 220 226 225 225 222 211 203 200 202 203 202 201 200 198 195 190 189 187 185
318 306 302 300 296 288 281 278 272 265 262 254 251 252 252 260 268 259 248 244 235 225 219 214 216 218 213 212 215 216 217 218 216 212 213 217 218 216 214 214 213 211 210 210 210 209 208 210 214 218 223 219 213 214 217 220 222 223 226 224 212 204 203 205 204 203 204 203 202 200 196 195 194 192
339 325 317 313 306 295 285 281 277 268 264 260 255 255 253 254 259 256 251 246 236 226 220 219 221 225 222 217 216 217 218 222 219 213 214 218 218 216 214 214 215 214 210 209 210 210 209 211 215 219 221 215 210 210 215 221 224 224 225 223 213 206 205 207 206 205 206 205 204 204 201 201 201 198
352 341 331 319 309 305 299 293 285 271 266 268 266 261 257 258 259 254 249 244 240 235 229 225 222 223 226 223 218 218 220 223 222 216 218 221 220 217 215 214 215 212 210 211 210 209 211 212 215 220 217 209 207 209 216 226 229 225 225 223 213 207 206 208 207 206 208 206 206 207 206 205 206 204
350 343 336 327 315 309 306 303 297 284 276 273 270 267 265 263 260 254 247 243 241 235 227 225 226 225 227 225 222 223 223 223 221 218 220 222 222 220 216 214 213 209 208 210 209 209 210 212 216 218 213 207 206 208 217 229 230 226 226 222 213 208 207 208 209 208 209 208 208 209 210 210 210 209
355 347 340 335 330 319 311 308 304 300 293 280 273 272 272 270 264 256 250 248 246 237 225 225 230 230 231 231 229 229 228 225 221 221 221 220 219 218 215 215 214 209 207 208 209 209 209 211 216 215 210 208 207 209 218 228 230 229 225 218 212 209 208 210 211 211 210 210 211 212 213 213 213 212
4 359 351 344 337 325 318 316 309 304 299 289 281 276 277 277 273 267 259 251 247 240 230 228 231 232 233 232 230 230 229 226 222 223 224 222 217 212 209 212 212 209 207 204 204 207 207 210 214 209 204 204 205 209 218 223 227 228 221 215 211 210 211 212 213 213 213 213 214 215 215 215 215 217
8 8 7 2 350 335 328 323 315 307 298 291 287 280 278 275 272 275 271 258 247 240 235 233 233 234 235 233 230 230 231 228 225 224 224 221 217 209 206 210 211 210 208 203 201 205 206 208 209 203 200 203 205 209 215 219 225 224 216 213 211 210 213 214 214 215 214 214 216 217 217 217 219 223
14 16 18 17 6 350 343 339 328 318 308 303 301 291 284 277 273 282 285 278 264 247 239 238 237 237 241 242 239 237 237 234 228 227 225 218 213 209 207 209 210 211 208 203 202 204 206 208 209 204 203 207 206 203 207 216 223 220 215 212 210 211 214 215 215 216 215 216 218 219 220 222 226 232
32 30 29 28 22 12 7 2 354 343 332 323 314 301 295 295 292 290 289 282 272 260 253 249 246 246 249 252 249 243 240 236 231 231 228 217 210 210 211 211 210 207 205 204 201 200 205 209 208 204 203 205 204 201 204 214 220 218 215 213 212 213 215 215 216 216 217 217 218 220 224 228 233 237
53 51 49 47 45 43 39 31 22 14 3 349 332 315 304 299 296 294 291 280 268 264 264 261 259 259 258 259 256 247 243 241 236 233 227 217 213 214 215 215 211 204 204 205 202 201 206 207 203 199 197 198 203 208 212 216 218 218 217 215 215 215 214 216 217 216 217 218 220 225 230 234 237 239
64 62 61 60 57 54 53 48 40 31 22 14 0 340 321 311 311 312 306 295 279 268 265 263 263 266 266 265 262 256 252 249 242 235 228 221 217 217 217 217 212 204 202 203 203 202 202 199 196 196 192 192 203 216 221 220 220 219 218 218 218 216 215 216 217 216 218 222 226 231 235 237 239 240
66 64 62 60 58 54 51 48 44 38 31 29 29 28 23 19 18 11 357 344 329 302 281 266 259 262 266 264 262 259 251 245 244 241 236 228 223 218 215 214 211 205 201 203 204 199 193 191 193 193 191 197 210 221 223 221 220 219 220 220 218 217 217 217 217 219 222 226 231 235 236 238 239 242
66 64 62 59 58 56 54 51 50 48 48 51 57 60 58 55 54 50 42 35 31 24 5 327 285 274 272 267 264 260 247 239 240 241 237 230 221 212 204 202 206 206 204 204 200 190 183 185 190 193 199 210 218 222 224 222 221 220 220 220 219 218 218 218 219 223 226 229 233 234 235 237 242 247
66 65 64 61 59 59 59 58 59 60 61 64 66 65 62 59 57 54 50 47 47 45 41 33 20 356 334 309 286 271 255 240 238 242 239 226 210 196 185 186 195 201 205 203 197 189 187 192 200 206 212 217 220 226 228 227 226 224 219 218 219 218 218 219 221 224 226 228 229 229 231 237 244 248
68 67 67 66 64 63 62 61 63 64 65 65 65 66 64 60 58 56 54 52 53 54 56 56 55 57 57 50 39 15 321 254 236 248 242 217 193 174 170 180 186 195 206 207 206 206 208 214 218 217 217 218 221 227 228 228 232 231 223 219 222 221 218 218 219 219 219 220 219 217 216 218 223 222
71 69 68 67 66 65 64 62 62 63 64 65 66 67 67 64 63 62 59 58 60 61 62 63 64 65 65 60 54 48 36 356 223 248 208 189 171 162 180 187 184 190 200 204 209 215 219 225 228 225 220 216 216 222 224 225 232 235 228 223 225 222 216 212 210 209 209 207 205 199 192 188 185 178
69 66 65 64 62 61 60 58 58 59 61 63 64 65 66 66 68 68 66 65 66 65 65 66 66 66 65 61 57 54 54 63 82 87 105 125 131 147 191 192 185 188 193 196 202 209 213 220 229 230 225 216 211 214 216 220 228 230 225 225 222 215 210 208 203 200 201 199 194 184 167 150 144 155
64 61 59 58 56 52 48 48 50 53 56 59 61 60 61 65 68 69 67 66 68 68 69 71 71 70 69 68 65 61 61 66 78 87 89 86 87 89 86 130 167 181 190 193 197 206 215 223 228 230 227 222 217 211 206 209 214 211 210 215 212 202 201 201 195 191 189 181 167 148 130 115 110 124
62 59 56 55 52 46 43 45 48 51 53 56 58 59 61 65 68 67 66 68 70 72 74 74 74 73 72 71 69 67 65 65 68 75 77 68 67 79 75 71 92 130 161 174 186 202 220 229 231 228 223 221 219 212 201 193 191 189 190 196 194 188 187 188 183 174 161 144 130 124 119 112 106 109
62 60 58 56 53 48 48 52 55 57 59 60 61 62 63 64 64 63 66 68 68 70 71 71 70 69 68 68 68 68 68 67 65 67 71 70 70 80 88 92 105 124 128 147 177 198 214 225 229 227 223 218 212 205 194 181 173 174 177 180 180 177 175 172 160 140 127 122 118 117 116 115 113 112
66 64 63 61 58 57 60 63 65 66 66 66 66 67 67 68 68 69 70 69 68 68 67 66 64 62 61 61 62 63 65 66 66 66 69 69 70 72 73 74 76 77 81 92 143 196 215 227 230 231 231 225 210 195 184 174 169 172 171 168 168 161 149 138 128 119 117 118 118 119 120 121 121 119
71 70 69 68 67 66 68 69 70 71 72 72 73 73 73 73 72 71 69 68 67 67 66 65 63 61 60 60 60 61 63 63 63 65 67 68 69 68 68 70 71 71 73 74 75 78 90 206 221 225 232 230 216 201 189 177 170 169 163 155 151 141 130 123 118 117 119 120 121 125 126 124 122 116
75 75 75 74 73 72 72 72 72 73 73 74 74 73 72 70 68 67 67 66 65 64 64 64 63 62 63 64 65 66 66 66 66 67 69 71 71 68 70 78 84 85 85 85 81 71 63 66 89 191 218 223 219 210 198 179 163 157 154 148 140 132 126 124 123 124 126 126 128 130 130 127 121 109
75 75 73 72 71 71 70 70 71 72 72 72 71 69 67 66 65 65 64 64 64 65 64 64 64 64 65 68 70 70 70 69 69 70 72 75 75 76 79 81 80 78 74 73 76 75 71 69 66 85 193 201 205 202 189 169 151 146 146 140 134 130 129 129 130 132 133 133 134 135 132 126 115 99
72 71 70 70 70 70 70 70 70 70 70 68 68 67 66 65 65 65 65 65 67 68 68 68 68 68 69 71 73 72 69 68 69 71 75 78 80 80 79 77 75 73 71 69 71 72 71 65 56 56 110 175 177 167 161 152 141 137 136 133 132 132 132 133 137 142 143 142 140 138 132 123 111 97
74 75 74 73 72 72 71 70 69 67 67 66 67 67 67 67 66 66 66 66 67 69 70 70 70 69 69 70 72 72 68 66 67 70 73 75 77 78 77 75 73 72 71 69 68 68 65 60 58 66 85 130 147 145 143 139 134 133 133 134 135 137 138 142 148 152 154 153 152 150 144 130 113 101
83 82 78 76 74 71 70 70 69 69 69 69 69 69 70 70 69 67 66 66 67 68 69 69 69 68 68 69 72 73 71 67 65 67 69 70 72 75 76 75 75 74 73 72 70 69 67 67 71 80 94 115 129 133 134 133 132 133 135 137 141 144 149 156 163 167 169 170 168 167 166 158 138 116
84 81 78 76 74 72 71 70 69 69 68 69 69 70 70 71 71 70 69 68 68 68 68 68 68 68 68 69 70 72 73 70 67 66 67 66 67 73 76 76 75 74 74 74 72 71 74 79 84 91 100 109 116 121 124 125 129 133 136 140 144 149 155 164 174 181 189 192 184 180 182 183 180 179
80 78 77 75 73 73 72 71 70 70 69 69 70 71 72 73 72 71 71 70 69 69 69 68 68 68 68 68 68 69 70 71 68 66 65 62 62 66 72 74 76 77 77 76 74 73 74 77 84 95 105 111 116 121 125 125 126 130 134 138 144 150 156 159 162 174 193 204 199 195 196 196 201 213
80 78 76 74 72 70 70 70 70 70 70 70 72 73 73 74 74 73 72 70 70 70 70 69 68 68 67 67 67 68 69 69 68 66 64 62 61 62 64 68 73 76 77 77 77 74 73 75 81 94 107 114 119 125 131 134 136 136 136 138 143 151 158 157 155 170 189 207 221 213 205 203 215 231
80 78 76 74 72 69 68 67 67 68 70 72 74 75 76 77 77 76 74 73 72 72 72 71 69 68 69 70 70 70 71 71 70 69 67 66 65 64 63 65 69 72 74 77 77 74 73 77 86 98 108 113 117 127 138 143 145 146 145 149 156 160 162 162 163 178 191 200 214 207 200 207 237 245
80 79 78 77 75 72 70 69 67 67 69 73 76 80 81 82 82 81 78 76 76 75 74 73 72 71 72 73 73 73 75 76 74 73 72 72 71 68 68 68 69 71 73 76 76 73 73 79 86 96 105 107 111 126 140 144 147 149 148 155 166 168 165 166 171 183 199 207 197 185 188 214 246 252
79 80 80 80 79 77 76 74 72 70 70 72 76 80 82 84 85 84 81 78 77 75 73 73 73 72 72 72 71 71 73 75 75 73 73 73 71 71 70 70 71 73 76 77 76 74 77 84 87 90 96 103 112 127 138 143 148 150 147 156 166 160 150 159 172 175 189 202 201 199 213 232 247 252
79 80 81 81 80 80 79 77 76 75 73 73 74 76 79 81 82 83 82 80 78 75 72 71 71 70 70 71 70 68 67 69 71 72 71 70 70 70 70 68 68 70 72 75 76 75 76 93 108 105 103 108 115 121 126 132 135 134 142 168 167 148 141 157 171 172 185 199 204 212 226 235 241 246
79 79 80 80 79 79 79 77 77 76 76 76 76 76 77 78 77 79 81 80 79 77 73 70 70 69 67 68 70 69 66 66 68 69 69 66 65 66 67 65 63 65 68 72 75 73 73 96 124 123 112 109 109 107 107 114 120 122 154 189 172 144 143 163 178 182 202 214 199 189 199 206 209 219
80 80 80 80 79 79 78 77 76 76 75 75 76 76 76 77 77 78 79 78 78 77 73 68 67 64 61 63 68 69 67 67 66 66 67 66 63 62 63 63 61 62 65 67 69 70 72 86 108 114 110 112 115 112 106 113 123 135 192 204 173 158 161 176 179 169 169 172 166 168 177 182 186 201
82 81 81 80 79 79 78 76 76 76 75 74 74 74 75 76 77 78 80 78 75 72 68 64 60 56 57 62 66 66 67 67 65 61 61 62 61 59 59 60 60 59 58 58 60 63 69 78 88 92 94 104 116 122 124 124 123 130 166 185 183 175 171 173 171 162 158 157 161 169 173 172 180 199
82 81 80 80 79 78 77 77 76 75 74 74 73 73 73 74 73 74 75 75 73 69 65 61 56 55 61 66 68 67 67 67 64 58 55 54 53 52 53 54 55 55 54 52 49 49 58 68 73 75 80 97 118 128 137 144 138 141 171 191 192 180 174 179 191 203 218 229 224 220 218 210 210 220
80 79 78 78 79 78 78 77 76 74 73 73 72 71 69 69 68 68 67 67 67 67 65 63 61 61 64 66 68 70 70 65 60 58 53 46 42 42 42 43 44 43 45 48 41 33 38 47 51 54 59 69 96 122 145 161 163 182 205 204 188 180 186 199 213 230 250 262 262 256 254 254 253 256